sat.trackr.live / text

‹ back to catalog

GEESAT-3 05

NORAD 61015 · 2024-159E

PAYLOAD ACTIVE UNKNOWN

§ Identity

Operator
Country
PRC
Launch date
2024-09-05
Launch site
TAISC
Launch vehicle
Mass (kg)
RCS (m²)

External: N2YO · Heavens-Above · Gunter

§ Orbital elements

Epoch: 2026-09-22T21:30:33.941088Z

Period
97.00 min
Inclination
50.0046°
Eccentricity
0.0012301
Mean motion
14.84501715 rev/d
Perigee alt
606.5 km
Apogee alt
623.8 km
Semi-major
6,993.3 km
B*
1.7118e-4
RAAN
350.0430°
Arg perigee
71.1945°
Mean anomaly
289.0327°
Rev number
11,129

§ Raw data

GEESAT-3 051 61015U 24159E   26265.89622617  .00001229  00000+0  17118-3 0  99902 61015  50.0046 350.0430 0012301  71.1945 289.0327 14.84501715111290

JSON: /api/v1/satellites/61015 · /tle

For live sub-satellite position, see the globe view (requires WebGL).

§ Visibility from observer

Set your observer location to see the next 7 days of passes ≥ 10°. The values pass through the URL so the page stays shareable.

No JS? Fill the form by hand. The geolocation button needs JavaScript.